Temperature
31 32 32 32 32 32 32 32 32 31 31 31 30 30 30 28 28 28 27 26 25 24 23 22 21 20 19 19 18 18 18 18 18 17 17 17 17 17 17 17 17 17 17 17
31 31 32 32 32 32 32 31 31 31 31 30 30 30 30 29 28 28 27 26 25 24 23 22 21 20 20 19 19 18 18 18 18 18 18 18 18 17 17 17 17 17 17 17
31 32 32 31 31 31 31 31 31 31 31 31 31 30 30 29 28 28 27 26 26 25 24 22 21 21 20 19 19 19 18 18 18 18 18 18 18 18 17 17 18 18 18 17
31 32 31 31 31 31 31 32 31 31 31 31 31 30 30 30 29 28 27 27 26 25 24 23 22 21 21 20 19 19 19 19 18 18 18 18 18 18 18 18 18 18 18 17
31 31 31 31 31 31 31 31 31 31 31 31 31 30 31 30 29 29 29 27 27 26 25 24 23 22 21 20 20 19 19 19 19 18 18 18 18 18 18 18 18 18 18 17
31 31 31 31 32 31 31 31 30 31 31 30 30 30 30 31 30 30 29 28 27 26 25 24 23 22 21 21 20 19 19 19 19 19 18 18 18 18 18 18 18 18 17 17
30 30 31 31 31 31 31 30 30 29 30 30 31 30 30 31 31 30 29 28 27 26 25 24 23 22 21 21 20 20 19 19 19 19 18 18 18 18 18 18 18 18 18 18
29 30 30 31 31 31 31 31 30 29 29 30 30 30 30 31 30 29 28 28 27 26 25 24 23 22 22 21 21 20 20 20 19 19 19 19 18 18 18 18 18 18 18 18
30 30 30 30 31 31 31 31 32 31 30 30 30 30 30 30 30 29 28 28 27 26 25 25 24 23 22 21 21 20 20 20 20 19 19 19 19 18 18 18 18 18 18 18
30 29 30 30 30 30 31 31 31 30 29 29 30 30 30 30 30 30 29 28 27 26 26 25 24 23 22 22 21 20 20 20 20 20 19 19 19 19 18 18 18 18 18 18
30 29 29 29 29 30 30 30 30 30 30 29 29 30 31 30 30 29 29 28 27 26 26 25 24 23 22 22 21 20 20 20 19 19 19 19 19 19 19 18 18 18 18 18
28 29 29 29 30 30 30 30 30 29 29 29 30 30 31 30 30 29 28 27 26 25 25 24 23 23 22 22 21 20 20 20 20 19 19 19 19 18 18 18 18 18 18 18
28 28 27 28 29 29 29 30 30 31 30 29 29 30 29 29 29 28 27 26 25 25 24 24 23 22 22 21 21 21 20 20 20 19 19 19 19 19 18 18 18 18 18 18
26 27 27 28 29 29 29 29 29 30 29 29 29 30 29 29 28 28 27 26 25 24 23 23 22 22 21 21 21 20 20 20 20 19 19 19 19 19 19 18 18 18 18 18
27 27 27 28 28 29 28 29 29 29 29 29 29 29 29 29 28 27 26 25 24 23 23 22 22 21 21 20 20 20 20 20 19 19 19 19 19 19 19 18 18 18 18 17
25 26 26 27 28 28 28 28 28 28 29 29 29 29 29 27 26 25 24 24 23 23 22 22 21 20 20 20 20 20 20 19 19 19 19 18 18 19 18 18 18 18 17 17
25 25 25 26 27 27 27 27 28 28 28 28 28 28 27 26 25 24 23 23 22 22 21 21 20 20 20 20 20 20 20 19 19 19 19 18 18 18 18 18 18 17 17 17
24 24 25 26 25 25 27 27 27 27 27 28 27 27 26 25 24 23 22 22 22 21 21 20 19 19 20 20 19 19 19 19 19 19 18 18 18 18 18 17 17 17 17 17
24 24 25 26 25 25 26 26 26 26 26 26 26 25 24 24 23 23 22 21 21 20 19 19 19 19 19 19 19 19 19 18 18 18 18 18 18 17 17 17 17 17 17 16
23 23 25 25 24 25 25 26 25 26 25 25 25 24 24 23 24 23 20 20 19 19 18 18 18 18 18 18 18 18 18 18 17 17 17 17 17 17 17 17 17 17 17 16
23 23 24 24 24 25 24 24 25 24 24 23 23 23 22 23 23 20 19 19 18 18 18 18 18 18 18 18 18 17 17 17 17 17 17 17 17 17 17 16 16 16 16 16
23 23 23 24 23 23 23 23 23 22 21 21 21 21 21 20 19 18 18 18 17 17 17 17 17 17 17 17 17 17 17 17 17 17 16 16 16 16 16 16 16 15 15 15
22 22 23 23 22 21 21 21 20 20 20 20 20 20 19 19 18 17 17 16 16 16 16 16 16 16 16 16 16 16 16 16 16 16 16 16 16 16 15 15 15 15 15 15
21 20 21 21 21 20 20 19 19 19 19 18 18 18 18 18 17 16 16 16 15 15 15 16 16 16 15 15 15 15 15 15 15 16 15 15 15 15 15 15 15 14 14 14
20 20 20 20 20 19 19 18 18 18 17 17 17 17 17 17 16 16 15 15 15 15 15 15 15 15 15 15 15 15 15 15 15 15 15 14 14 15 14 14 14 14 14 14
19 19 20 20 19 19 18 17 17 17 17 17 17 16 16 16 15 15 15 14 14 14 14 14 14 14 14 14 14 14 14 14 14 14 14 14 14 14 14 14 14 13 13 13
Wind_Speed
9 11 10 8 7 6 5 6 4 1 2 5 5 4 5 9 10 9 10 10 10 9 9 8 8 8 8 7 8 7 7 7 5 4 4 4 4 3 3 3 5 5 4 5
11 14 11 7 7 7 7 7 5 2 2 4 4 4 4 8 11 10 10 10 10 10 9 9 9 9 9 9 8 8 8 8 7 5 4 3 3 3 4 3 4 4 4 4
17 11 9 9 10 9 9 7 6 4 3 5 5 5 5 7 9 10 10 10 11 10 11 11 11 10 9 9 9 8 9 8 7 6 5 4 4 3 4 4 4 4 4 4
14 11 10 12 12 11 10 6 6 5 6 4 5 4 4 7 9 10 11 11 12 12 11 11 11 11 10 10 10 9 9 8 8 7 6 6 5 4 4 3 4 4 4 4
12 12 13 14 12 10 8 4 6 7 8 7 6 6 3 6 6 9 11 12 12 12 12 12 12 12 11 10 10 10 10 9 9 8 7 6 5 4 4 4 4 4 4 4
10 9 11 11 10 9 6 6 6 8 9 9 7 7 4 3 4 5 7 9 11 11 12 12 12 11 11 11 10 10 10 10 9 9 8 7 6 5 4 5 5 5 4 4
12 12 10 10 11 11 11 10 8 9 9 8 5 7 4 1 2 2 4 7 9 11 12 12 12 12 12 12 11 11 11 10 9 9 8 8 7 7 6 5 5 5 4 5
14 14 13 11 13 11 14 14 11 9 9 7 7 6 3 2 2 2 3 5 7 9 11 12 13 12 12 13 12 12 11 11 10 9 8 7 7 6 5 6 5 5 4 4
11 11 10 10 11 12 14 14 12 11 11 10 7 6 6 4 4 4 5 5 6 8 9 11 12 12 12 12 13 13 12 11 10 10 9 8 8 7 5 5 6 5 4 4
8 9 10 9 10 10 12 11 9 11 10 11 9 9 6 7 6 5 4 4 5 7 8 9 10 11 11 11 12 12 11 11 10 10 9 8 8 7 7 6 6 5 4 4
9 10 10 11 12 12 11 13 11 11 11 11 10 6 3 5 6 5 4 3 4 6 7 8 9 10 11 11 11 11 11 10 10 9 9 8 7 7 7 6 6 6 5 5
8 9 11 12 8 8 12 14 14 12 11 12 11 6 2 3 4 4 3 3 3 4 6 7 8 9 9 10 11 11 10 10 9 9 8 8 7 7 7 6 6 6 5 5
6 8 10 11 11 10 12 13 14 15 13 12 13 7 3 2 3 3 3 3 4 5 6 7 8 8 8 8 9 10 10 10 9 9 9 8 7 7 7 6 6 6 5 5
6 10 12 13 9 9 12 13 13 15 13 13 14 10 4 4 4 4 3 3 4 5 6 6 7 7 6 7 8 9 9 9 9 9 9 8 8 8 7 7 6 6 6 5
6 10 11 10 8 8 11 12 13 15 15 14 11 10 8 6 5 4 3 3 4 4 5 6 6 6 6 6 7 8 8 8 8 8 8 8 8 7 7 6 6 6 6 6
6 8 9 10 9 9 10 12 13 14 14 14 12 10 4 3 4 4 3 3 4 4 4 5 5 5 6 6 6 6 7 7 8 8 8 7 7 6 7 6 6 6 6 5
6 8 10 11 9 10 13 11 12 12 13 12 12 8 3 3 4 4 4 4 4 4 4 4 5 4 5 5 6 7 7 7 8 7 7 6 6 6 6 6 6 5 5 5
8 9 8 9 9 14 7 4 7 10 10 10 8 5 4 4 3 2 3 3 4 4 3 3 3 4 4 5 5 6 6 7 7 7 6 6 7 7 6 6 6 5 5 4
9 9 9 9 12 11 7 5 7 9 10 6 6 4 3 2 3 3 2 2 2 3 2 2 2 2 3 4 5 5 6 6 7 6 6 6 6 6 6 6 5 5 4 4
8 9 10 10 12 11 5 2 4 7 10 4 5 5 5 5 6 3 2 2 2 3 2 2 2 3 3 3 5 5 5 5 5 5 5 5 5 5 5 5 4 4 4 4
8 9 12 12 11 7 1 1 3 8 4 2 4 5 5 5 3 2 3 3 3 4 4 4 4 4 3 3 4 5 4 4 3 3 3 3 4 4 4 3 3 3 4 4
7 8 9 10 11 6 3 1 2 3 3 2 2 2 2 2 4 4 4 4 4 5 5 4 4 4 4 4 4 4 3 2 3 3 3 3 3 2 3 3 3 3 3 4
4 3 3 3 2 2 2 2 3 3 2 2 1 0 3 5 5 5 5 5 5 5 5 4 5 5 4 3 3 3 2 2 3 3 3 3 2 2 2 2 3 3 3 3
2 1 2 2 1 1 2 2 2 2 1 2 1 1 4 5 5 6 6 5 5 5 4 4 4 5 4 4 3 3 2 1 2 3 3 3 3 2 2 2 2 2 2 2
2 2 3 4 2 1 0 2 2 2 1 1 2 3 4 5 6 6 5 5 5 4 4 4 3 4 5 4 4 3 2 1 1 2 2 3 3 2 3 2 1 1 0 1
3 3 4 3 1 2 1 1 2 1 2 2 3 4 5 5 6 6 5 5 4 4 4 4 4 4 4 4 4 3 3 1 1 1 2 1 1 2 2 2 1 2 1 2
Wind_Direction
201 220 223 224 231 257 267 270 266 203 172 230 244 247 193 186 194 191 189 190 191 190 181 176 179 177 175 174 175 178 177 171 176 176 179 172 164 163 155 157 148 155 162 158
209 224 226 226 224 240 250 257 253 212 194 244 261 253 207 195 202 202 198 195 195 188 180 178 183 183 181 178 179 180 180 177 183 178 181 173 160 162 154 151 147 159 162 169
221 219 204 216 223 231 240 255 265 258 222 222 255 225 196 190 203 206 208 203 197 195 188 184 186 188 185 182 183 184 184 181 186 182 181 169 162 173 161 164 164 167 170 173
226 219 208 220 227 234 238 244 260 246 240 237 250 272 180 184 197 205 207 206 202 196 193 189 186 188 187 185 183 184 183 185 186 187 190 186 184 180 173 177 166 166 172 176
213 212 215 224 227 231 245 232 239 242 248 257 235 266 207 173 205 205 204 205 204 198 193 190 189 187 187 183 181 181 183 185 187 192 190 197 199 189 176 174 165 179 179 190
222 210 221 227 227 221 208 209 222 235 245 249 248 257 261 194 224 215 197 200 203 197 193 189 187 184 185 183 183 180 180 184 187 191 194 201 202 198 185 181 181 188 186 191
212 210 207 215 213 204 212 224 231 233 234 243 224 246 255 238 220 213 187 186 192 193 191 188 185 185 186 186 184 182 180 184 186 191 196 200 205 203 202 204 194 200 196 194
209 207 201 207 220 216 219 232 241 252 255 245 213 238 231 174 170 164 169 170 176 183 188 188 187 187 187 187 185 184 183 186 186 189 194 198 203 209 208 210 214 205 209 204
217 212 189 205 221 230 224 230 247 252 258 260 238 230 225 200 197 177 169 170 174 179 182 186 186 188 186 187 186 186 185 187 189 190 191 195 200 210 212 206 217 215 212 207
228 224 199 195 209 221 238 234 235 242 250 258 245 237 229 205 203 190 180 175 174 177 180 180 181 185 185 183 184 186 186 188 189 190 194 193 199 206 212 216 215 223 217 214
231 226 208 203 215 217 211 220 230 242 249 255 258 243 215 205 205 198 187 181 176 179 178 175 178 182 181 178 180 184 185 187 190 193 194 199 199 205 210 215 219 220 222 218
222 231 227 219 215 239 229 229 224 232 239 247 261 253 139 185 203 198 190 182 179 177 175 170 168 172 177 178 180 182 185 188 191 192 193 198 201 204 208 212 217 218 219 221
212 228 224 217 210 211 223 227 231 236 242 244 250 244 162 174 209 206 199 179 173 170 168 168 166 170 176 181 182 183 186 188 189 189 193 194 198 201 209 216 217 219 220 224
230 231 238 240 235 216 220 223 229 236 239 243 246 254 232 220 216 217 205 181 170 170 168 170 172 172 174 180 183 185 188 187 187 189 192 193 198 203 206 210 213 217 220 223
226 232 238 250 250 234 232 227 226 233 245 252 253 254 257 245 231 216 198 183 166 167 171 176 181 179 181 181 183 185 186 184 183 187 193 196 198 201 206 209 215 216 218 220
227 231 229 236 232 230 234 231 230 235 242 248 253 257 271 255 224 210 197 187 183 181 184 185 185 184 186 184 183 181 182 183 182 187 194 194 198 202 207 210 214 214 217 223
218 223 229 231 226 232 234 231 231 236 241 247 251 260 246 237 234 222 211 206 202 201 199 194 191 188 185 183 181 180 179 178 180 185 190 192 201 208 212 212 210 212 216 221
229 229 230 234 224 234 231 224 238 240 243 250 257 257 246 239 229 219 210 204 201 195 193 191 191 185 181 180 180 182 177 173 175 180 185 187 195 202 203 205 206 205 207 213
224 224 230 231 230 233 228 237 241 241 244 248 251 239 224 215 200 211 190 173 168 173 176 177 182 171 165 173 174 172 173 172 177 183 190 194 196 201 199 203 205 204 201 212
201 221 230 234 241 241 236 250 261 242 237 240 248 231 219 223 234 225 147 138 128 121 122 126 122 124 133 157 163 165 167 170 178 185 192 195 195 202 203 204 206 202 198 207
198 210 226 233 239 240 10 332 220 228 245 301 255 232 221 233 262 154 137 123 114 108 101 95 99 101 104 121 139 148 148 153 161 163 161 167 172 184 189 191 201 210 208 206
222 216 220 230 234 230 54 184 240 334 355 331 307 229 210 159 121 126 123 115 109 106 100 96 94 94 96 107 124 133 137 138 139 143 148 155 163 173 166 174 190 212 221 211
232 260 236 243 246 38 37 357 351 349 343 336 319 256 160 140 137 130 118 109 100 97 96 98 101 99 95 93 101 109 105 112 128 137 145 156 164 163 169 187 194 207 217 233
196 266 236 233 221 338 3 5 357 357 339 332 304 149 141 138 136 129 121 113 103 93 93 100 107 100 91 86 85 83 68 95 141 148 160 175 177 178 176 206 204 224 236 246
290 229 230 231 238 238 293 3 5 22 41 65 106 121 133 134 132 127 121 113 106 99 95 100 107 103 93 86 79 72 57 47 150 177 187 197 193 185 196 193 201 229 271 303
262 257 256 259 234 255 271 7 1 49 83 106 121 118 122 125 125 122 115 108 107 101 98 98 97 96 94 85 76 62 53 42 320 227 221 221 218 199 206 190 178 98 148 117
Height
1492 1490 1488 1486 1485 1486 1487 1489 1490 1490 1490 1493 1494 1495 1496 1502 1505 1507 1510 1512 1515 1517 1520 1522 1523 1524 1526 1526 1527 1529 1530 1532 1534 1535 1537 1538 1539 1540 1541 1542 1543 1544 1546 1547
1490 1488 1483 1483 1485 1487 1488 1490 1490 1490 1490 1492 1492 1493 1492 1497 1501 1504 1506 1509 1512 1515 1518 1520 1522 1523 1524 1525 1526 1528 1529 1531 1533 1535 1537 1538 1539 1541 1542 1543 1543 1544 1546 1547
1485 1481 1482 1486 1487 1489 1488 1489 1489 1491 1490 1489 1492 1493 1492 1494 1498 1502 1504 1507 1509 1512 1514 1517 1519 1521 1523 1524 1525 1527 1529 1531 1533 1535 1537 1538 1539 1540 1542 1542 1543 1544 1546 1547
1480 1479 1483 1485 1485 1486 1489 1485 1486 1489 1492 1491 1492 1498 1490 1489 1493 1497 1500 1503 1505 1509 1512 1514 1517 1519 1521 1522 1524 1526 1528 1530 1532 1534 1536 1537 1539 1540 1541 1542 1544 1544 1545 1547
1479 1479 1482 1484 1482 1483 1484 1484 1485 1487 1489 1490 1490 1495 1488 1486 1490 1491 1495 1498 1502 1505 1508 1511 1514 1516 1519 1521 1523 1525 1527 1529 1531 1533 1535 1536 1538 1540 1541 1542 1543 1544 1545 1546
1475 1478 1479 1479 1480 1481 1484 1486 1487 1486 1485 1499 1491 1496 1494 1483 1486 1486 1490 1495 1499 1502 1505 1509 1512 1515 1517 1520 1522 1524 1525 1527 1529 1531 1533 1535 1537 1539 1540 1541 1542 1543 1544 1545
1480 1477 1477 1479 1481 1482 1484 1489 1499 1502 1500 1496 1485 1492 1491 1481 1481 1484 1487 1492 1495 1499 1502 1506 1509 1512 1515 1517 1520 1522 1523 1525 1528 1530 1532 1533 1535 1537 1538 1540 1541 1542 1544 1544
1481 1481 1474 1476 1477 1479 1480 1482 1498 1508 1503 1491 1487 1491 1483 1479 1482 1485 1488 1490 1493 1496 1499 1502 1506 1509 1512 1515 1517 1520 1521 1523 1526 1528 1530 1532 1534 1536 1538 1538 1540 1541 1542 1543
1473 1476 1471 1473 1474 1474 1478 1478 1473 1483 1487 1492 1485 1482 1478 1478 1481 1484 1486 1489 1491 1494 1496 1499 1503 1506 1509 1512 1514 1517 1519 1521 1523 1526 1528 1530 1531 1533 1535 1537 1538 1539 1540 1541
1467 1476 1470 1472 1474 1474 1472 1471 1477 1483 1500 1502 1490 1484 1481 1479 1479 1480 1483 1486 1489 1492 1494 1497 1501 1504 1507 1509 1512 1515 1517 1519 1521 1524 1526 1528 1529 1531 1533 1534 1535 1537 1538 1539
1466 1474 1473 1472 1474 1472 1476 1476 1476 1477 1480 1495 1497 1485 1467 1472 1475 1478 1481 1485 1488 1490 1493 1496 1499 1502 1505 1507 1510 1512 1515 1517 1519 1522 1524 1526 1527 1529 1531 1532 1533 1534 1535 1536
1469 1470 1473 1469 1467 1468 1468 1469 1473 1485 1487 1483 1485 1482 1466 1470 1474 1478 1481 1485 1487 1490 1492 1495 1497 1500 1503 1505 1508 1510 1512 1515 1517 1519 1521 1523 1525 1526 1528 1530 1531 1532 1533 1534
1471 1473 1481 1478 1474 1471 1470 1468 1467 1468 1473 1479 1484 1480 1469 1471 1474 1477 1481 1484 1487 1489 1492 1494 1496 1498 1501 1503 1505 1508 1510 1512 1515 1517 1519 1521 1522 1524 1525 1527 1528 1529 1530 1531
1473 1471 1474 1476 1469 1465 1470 1469 1468 1468 1475 1476 1475 1472 1469 1471 1475 1478 1481 1483 1486 1488 1490 1493 1495 1497 1499 1501 1503 1505 1507 1510 1512 1514 1516 1518 1519 1520 1522 1524 1525 1526 1527 1528
1471 1471 1469 1465 1462 1463 1466 1467 1467 1469 1468 1471 1468 1469 1469 1470 1474 1478 1481 1483 1485 1487 1489 1491 1493 1495 1497 1499 1501 1503 1505 1507 1509 1511 1513 1515 1516 1518 1519 1521 1522 1523 1524 1525
1471 1471 1470 1470 1464 1464 1467 1465 1466 1467 1466 1466 1467 1468 1468 1472 1475 1478 1481 1483 1484 1486 1488 1489 1491 1493 1495 1497 1498 1500 1502 1504 1506 1508 1510 1512 1514 1515 1516 1518 1519 1520 1521 1521
1469 1472 1473 1470 1465 1466 1471 1464 1464 1465 1463 1465 1467 1468 1470 1473 1476 1478 1480 1482 1483 1485 1486 1487 1489 1491 1492 1494 1496 1497 1499 1501 1503 1505 1507 1509 1511 1512 1514 1515 1516 1516 1517 1518
1472 1472 1469 1467 1473 1482 1466 1459 1460 1463 1462 1463 1464 1467 1470 1473 1476 1478 1479 1481 1482 1483 1485 1486 1487 1488 1490 1492 1494 1496 1497 1499 1501 1503 1505 1506 1508 1509 1510 1511 1512 1513 1514 1514
1470 1471 1468 1467 1471 1469 1464 1461 1462 1464 1464 1464 1466 1468 1472 1473 1475 1476 1479 1480 1481 1482 1483 1484 1485 1487 1488 1490 1492 1494 1495 1497 1498 1500 1502 1503 1505 1506 1507 1508 1508 1509 1510 1511
1469 1469 1468 1467 1472 1473 1464 1461 1463 1464 1466 1466 1467 1469 1471 1472 1471 1474 1478 1479 1480 1481 1482 1483 1484 1486 1487 1488 1490 1492 1493 1495 1496 1498 1499 1501 1502 1503 1504 1504 1506 1506 1507 1508
1467 1468 1467 1466 1468 1463 1462 1463 1463 1470 1469 1468 1468 1469 1471 1472 1473 1476 1477 1479 1479 1480 1481 1482 1483 1484 1486 1487 1489 1490 1491 1493 1494 1496 1497 1498 1499 1500 1501 1501 1502 1503 1504 1505
1463 1463 1467 1464 1468 1469 1465 1464 1466 1469 1469 1469 1470 1470 1472 1473 1474 1475 1477 1478 1479 1479 1480 1481 1482 1484 1485 1487 1488 1489 1490 1491 1492 1494 1495 1496 1497 1498 1499 1499 1499 1500 1501 1501
1463 1463 1460 1464 1467 1468 1468 1469 1471 1471 1471 1471 1471 1471 1472 1473 1474 1475 1477 1478 1479 1479 1480 1481 1482 1483 1484 1486 1487 1488 1489 1490 1491 1492 1493 1493 1494 1495 1496 1497 1497 1497 1498 1499
1465 1468 1466 1467 1466 1468 1470 1471 1471 1471 1472 1472 1471 1471 1472 1473 1474 1475 1476 1477 1478 1479 1480 1481 1482 1483 1483 1485 1486 1486 1487 1489 1490 1490 1491 1491 1492 1492 1493 1494 1495 1495 1495 1496
1467 1467 1466 1467 1468 1470 1470 1471 1471 1471 1471 1471 1472 1472 1472 1473 1474 1475 1475 1477 1478 1479 1480 1481 1482 1482 1483 1484 1485 1485 1486 1488 1489 1489 1489 1489 1490 1490 1491 1491 1491 1492 1492 1492
1468 1468 1467 1465 1469 1469 1471 1472 1472 1471 1472 1472 1472 1472 1473 1473 1474 1475 1476 1477 1478 1479 1480 1481 1481 1482 1483 1483 1484 1485 1485 1486 1487 1487 1487 1487 1488 1488 1488 1489 1489 1489 1489 1489